Time,TemperatureF,DewpointF,PressureIn,WindDirection,WindDirectionDegrees,WindSpeedMPH,WindSpeedGustMPH,Humidity,HourlyPrecipIn,Conditions,Clouds,dailyrainin,SoftwareType,DateUTC
2013-01-25 00:02:00,12.9,-0.6,30.15,SSE,161,2.0,9.0,54,0.00,,OVC065,0.00,VWS V14.01,2013-01-25 06:02:00,
2013-01-25 00:12:00,13.1,0.0,30.15,South,171,2.0,6.0,55,0.00,,OVC065,0.00,VWS V14.01,2013-01-25 06:12:00,
2013-01-25 00:17:00,13.1,0.0,30.15,South,178,4.0,10.0,55,0.00,,OVC065,0.00,VWS V14.01,2013-01-25 06:17:00,
2013-01-25 00:22:00,13.3,0.2,30.15,South,186,3.0,9.0,55,0.00,,OVC065,0.00,VWS V14.01,2013-01-25 06:22:00,
2013-01-25 00:32:00,13.3,0.2,30.15,South,169,0.0,7.0,55,0.00,,OVC065,0.00,VWS V14.01,2013-01-25 06:32:00,
2013-01-25 00:37:00,13.5,0.7,30.15,SSW,198,2.0,10.0,56,0.00,,OVC065,0.00,VWS V14.01,2013-01-25 06:37:00,
2013-01-25 00:42:00,13.5,0.7,30.15,SW,218,2.0,9.0,56,0.00,,OVC065,0.00,VWS V14.01,2013-01-25 06:42:00,
2013-01-25 00:47:00,13.5,1.1,30.15,SSW,206,0.0,5.0,57,0.00,,OVC065,0.00,VWS V14.01,2013-01-25 06:47:00,
2013-01-25 00:52:00,13.5,1.1,30.15,SSW,193,1.0,7.0,57,0.00,,OVC065,0.00,VWS V14.01,2013-01-25 06:52:00,
2013-01-25 01:02:00,13.5,1.9,30.13,SSW,192,2.0,10.0,59,0.00,,OVC060,0.00,VWS V14.01,2013-01-25 07:02:00,
2013-01-25 01:07:00,13.5,2.6,30.13,SSW,208,3.0,7.0,61,0.00,,OVC060,0.00,VWS V14.01,2013-01-25 07:07:00,
2013-01-25 01:17:00,13.5,3.6,30.12,SW,220,1.0,7.0,64,0.00,,OVC060,0.00,VWS V14.01,2013-01-25 07:17:00,
2013-01-25 01:27:00,13.5,3.9,30.12,SW,214,1.0,6.0,65,0.00,,OVC060,0.00,VWS V14.01,2013-01-25 07:27:00,
2013-01-25 01:32:00,13.5,4.3,30.11,SSW,204,1.0,7.0,66,0.00,,OVC060,0.00,VWS V14.01,2013-01-25 07:32:00,
2013-01-25 01:37:00,13.6,4.7,30.11,South,179,4.0,9.0,67,0.00,,OVC060,0.00,VWS V14.01,2013-01-25 07:37:00,
2013-01-25 01:42:00,13.8,4.9,30.11,SSW,199,3.0,11.0,67,0.00,,OVC060,0.00,VWS V14.01,2013-01-25 07:42:00,
2013-01-25 01:47:00,14.0,5.1,30.10,SSW,196,3.0,7.0,67,0.00,,OVC060,0.00,VWS V14.01,2013-01-25 07:47:00,
2013-01-25 01:52:00,14.0,5.1,30.10,SSW,211,2.0,10.0,67,0.00,,OVC060,0.00,VWS V14.01,2013-01-25 07:52:00,
2013-01-25 01:57:00,14.0,5.1,30.10,South,188,2.0,4.0,67,0.00,,OVC060,0.00,VWS V14.01,2013-01-25 07:57:00,
2013-01-25 02:02:00,14.0,5.4,30.10,South,173,3.0,7.0,68,0.00,,OVC044,0.00,VWS V14.01,2013-01-25 08:02:00,
2013-01-25 02:07:00,14.1,5.5,30.10,South,190,3.0,9.0,68,0.00,,OVC044,0.00,VWS V14.01,2013-01-25 08:07:00,
2013-01-25 02:12:00,14.1,5.5,30.10,South,180,2.0,10.0,68,0.00,,OVC044,0.00,VWS V14.01,2013-01-25 08:12:00,
2013-01-25 02:22:00,14.1,5.8,30.08,SSW,205,2.0,7.0,69,0.00,,OVC044,0.00,VWS V14.01,2013-01-25 08:22:00,
2013-01-25 02:27:00,14.1,5.8,30.08,SW,227,3.0,9.0,69,0.00,,OVC044,0.00,VWS V14.01,2013-01-25 08:27:00,
2013-01-25 02:32:00,14.1,6.1,30.08,South,191,1.0,9.0,70,0.00,,OVC044,0.00,VWS V14.01,2013-01-25 08:32:00,
2013-01-25 02:37:00,14.1,6.1,30.08,South,174,4.0,11.0,70,0.00,,OVC044,0.00,VWS V14.01,2013-01-25 08:37:00,
2013-01-25 02:47:00,14.1,6.4,30.07,South,171,9.0,11.0,71,0.00,,OVC044,0.00,VWS V14.01,2013-01-25 08:47:00,
2013-01-25 02:57:00,14.3,6.6,30.07,South,190,5.0,12.0,71,0.00,,OVC044,0.00,VWS V14.01,2013-01-25 08:57:00,
2013-01-25 03:02:00,14.3,6.6,30.06,SSW,199,3.0,9.0,71,0.00,,OVC042,0.00,VWS V14.01,2013-01-25 09:02:00,
2013-01-25 03:07:00,14.4,6.7,30.06,SSW,198,3.0,10.0,71,0.00,,OVC042,0.00,VWS V14.01,2013-01-25 09:07:00,
2013-01-25 03:12:00,14.4,6.7,30.06,SSW,205,2.0,8.0,71,0.00,,OVC042,0.00,VWS V14.01,2013-01-25 09:12:00,
2013-01-25 03:22:00,14.4,6.4,30.05,SSW,207,3.0,9.0,70,0.00,,OVC042,0.00,VWS V14.01,2013-01-25 09:22:00,
2013-01-25 03:27:00,14.6,6.6,30.05,SSW,203,5.0,13.0,70,0.00,,OVC042,0.00,VWS V14.01,2013-01-25 09:27:00,
2013-01-25 03:37:00,14.6,6.6,30.03,SW,218,6.0,13.0,70,0.00,,OVC042,0.00,VWS V14.01,2013-01-25 09:37:00,
2013-01-25 03:47:00,14.8,6.5,30.02,SW,223,1.0,11.0,69,0.00,,OVC042,0.00,VWS V14.01,2013-01-25 09:47:00,
2013-01-25 03:52:00,14.8,6.5,30.02,SW,229,3.0,10.0,69,0.00,,OVC042,0.00,VWS V14.01,2013-01-25 09:52:00,
2013-01-25 03:57:00,14.9,6.6,30.02,SSW,195,1.0,13.0,69,0.00,,OVC042,0.00,VWS V14.01,2013-01-25 09:57:00,
2013-01-25 04:02:00,14.9,6.3,30.00,South,183,0.0,8.0,68,0.00,,OVC040,0.00,VWS V14.01,2013-01-25 10:02:00,
2013-01-25 04:12:00,14.9,6.3,30.00,South,172,4.0,7.0,68,0.00,,OVC040,0.00,VWS V14.01,2013-01-25 10:12:00,
2013-01-25 04:17:00,15.1,6.5,29.99,WSW,243,0.0,7.0,68,0.00,,OVC040,0.00,VWS V14.01,2013-01-25 10:17:00,
2013-01-25 04:27:00,15.1,6.5,29.99,SW,221,5.0,7.0,68,0.00,,OVC040,0.00,VWS V14.01,2013-01-25 10:27:00,
2013-01-25 04:32:00,15.2,6.6,29.99,SW,235,11.0,11.0,68,0.00,,OVC040,0.00,VWS V14.01,2013-01-25 10:32:00,
2013-01-25 04:37:00,15.2,6.6,29.99,SW,227,6.0,11.0,68,0.00,,OVC040,0.00,VWS V14.01,2013-01-25 10:37:00,
2013-01-25 04:47:00,15.4,6.4,29.97,South,188,3.0,14.0,67,0.00,,OVC040,0.00,VWS V14.01,2013-01-25 10:47:00,
2013-01-25 04:52:00,15.4,6.4,29.97,SW,235,4.0,11.0,67,0.00,,OVC040,0.00,VWS V14.01,2013-01-25 10:52:00,
2013-01-25 04:57:00,15.6,6.3,29.97,SSW,195,2.0,9.0,66,0.00,,OVC040,0.00,VWS V14.01,2013-01-25 10:57:00,
2013-01-25 05:02:00,15.6,6.3,29.97,SW,226,4.0,7.0,66,0.00,,OVC036,0.00,VWS V14.01,2013-01-25 11:02:00,
2013-01-25 05:07:00,15.6,6.3,29.97,SSW,204,0.0,13.0,66,0.00,,OVC036,0.00,VWS V14.01,2013-01-25 11:07:00,
2013-01-25 05:12:00,15.7,6.4,29.97,SSW,211,1.0,4.0,66,0.00,,OVC036,0.00,VWS V14.01,2013-01-25 11:12:00,
2013-01-25 05:17:00,15.7,6.4,29.96,SW,230,5.0,11.0,66,0.00,,OVC036,0.00,VWS V14.01,2013-01-25 11:17:00,
2013-01-25 05:27:00,15.9,6.2,29.96,WSW,245,3.0,5.0,65,0.00,,OVC036,0.00,VWS V14.01,2013-01-25 11:27:00,
2013-01-25 05:32:00,15.9,6.2,29.95,SW,236,15.0,18.0,65,0.00,,OVC036,0.00,VWS V14.01,2013-01-25 11:32:00,
2013-01-25 05:37:00,16.1,6.4,29.95,WSW,239,1.0,15.0,65,0.00,,OVC036,0.00,VWS V14.01,2013-01-25 11:37:00,
2013-01-25 05:42:00,16.1,6.4,29.95,SW,232,10.0,14.0,65,0.00,,OVC036,0.00,VWS V14.01,2013-01-25 11:42:00,
2013-01-25 05:47:00,16.2,6.2,29.95,SW,225,1.0,11.0,64,0.00,,OVC028,0.00,VWS V14.01,2013-01-25 11:47:00,
2013-01-25 05:57:00,16.4,6.4,29.95,WSW,246,1.0,15.0,64,0.00,,OVC028,0.00,VWS V14.01,2013-01-25 11:57:00,
2013-01-25 06:02:00,16.4,6.4,29.94,SW,225,2.0,10.0,64,0.00,,OVC026,0.00,VWS V14.01,2013-01-25 12:02:00,
2013-01-25 06:07:00,16.5,6.1,29.94,SW,236,3.0,12.0,63,0.00,,OVC026,0.00,VWS V14.01,2013-01-25 12:07:00,
2013-01-25 06:12:00,16.7,6.3,29.94,WSW,237,3.0,13.0,63,0.00,,OVC026,0.00,VWS V14.01,2013-01-25 12:12:00,
2013-01-25 06:17:00,16.7,6.3,29.93,SW,231,4.0,9.0,63,0.00,,OVC026,0.00,VWS V14.01,2013-01-25 12:17:00,
2013-01-25 06:22:00,16.9,6.5,29.93,WSW,237,2.0,7.0,63,0.00,,OVC026,0.00,VWS V14.01,2013-01-25 12:22:00,
2013-01-25 06:27:00,16.9,6.5,29.93,WSW,254,4.0,7.0,63,0.00,,OVC026,0.00,VWS V14.01,2013-01-25 12:27:00,
2013-01-25 06:32:00,16.9,6.8,29.94,WSW,240,3.0,14.0,64,0.00,,OVC026,0.00,VWS V14.01,2013-01-25 12:32:00,
2013-01-25 06:42:00,16.9,6.8,29.94,West,259,4.0,12.0,64,0.00,,OVC026,0.00,VWS V14.01,2013-01-25 12:42:00,
2013-01-25 06:47:00,17.0,7.3,29.93,WSW,250,13.0,13.0,65,0.00,,OVC026,0.00,VWS V14.01,2013-01-25 12:47:00,
2013-01-25 06:52:00,17.0,7.3,29.93,WSW,244,5.0,17.0,65,0.00,,OVC026,0.00,VWS V14.01,2013-01-25 12:52:00,
2013-01-25 06:57:00,17.0,7.6,29.93,West,259,4.0,14.0,66,0.00,,OVC026,0.00,VWS V14.01,2013-01-25 12:57:00,
2013-01-25 07:02:00,17.0,7.6,29.93,West,266,2.0,13.0,66,0.00,,OVC020,0.00,VWS V14.01,2013-01-25 13:02:00,
2013-01-25 07:07:00,16.9,7.5,29.93,West,276,4.0,12.0,66,0.00,,OVC020,0.00,VWS V14.01,2013-01-25 13:07:00,
2013-01-25 07:12:00,16.9,7.8,29.93,SW,234,2.0,11.0,67,0.00,,OVC020,0.00,VWS V14.01,2013-01-25 13:12:00,
2013-01-25 07:17:00,16.9,7.8,29.93,WSW,245,0.0,6.0,67,0.00,,OVC020,0.00,VWS V14.01,2013-01-25 13:17:00,
2013-01-25 07:22:00,16.9,7.8,29.93,WSW,248,1.0,13.0,67,0.00,,OVC020,0.00,VWS V14.01,2013-01-25 13:22:00,
2013-01-25 07:32:00,17.0,8.3,29.93,West,272,3.0,12.0,68,0.00,,OVC020,0.00,VWS V14.01,2013-01-25 13:32:00,
2013-01-25 07:37:00,17.0,8.3,29.93,West,261,1.0,5.0,68,0.00,,OVC020,0.00,VWS V14.01,2013-01-25 13:37:00,
2013-01-25 07:47:00,17.0,8.3,29.93,WSW,256,3.0,11.0,68,0.00,,OVC020,0.00,VWS V14.01,2013-01-25 13:47:00,
2013-01-25 07:52:00,17.0,8.3,29.93,West,259,2.0,14.0,68,0.00,,OVC020,0.00,VWS V14.01,2013-01-25 13:52:00,
2013-01-25 07:57:00,17.0,8.6,29.93,West,263,2.0,11.0,69,0.00,,OVC020,0.00,VWS V14.01,2013-01-25 13:57:00,
2013-01-25 08:07:00,17.3,8.9,29.92,WSW,252,3.0,12.0,69,0.00,,OVC030,0.00,VWS V14.01,2013-01-25 14:07:00,
2013-01-25 08:12:00,17.3,8.9,29.92,West,267,3.0,14.0,69,0.00,,OVC030,0.00,VWS V14.01,2013-01-25 14:12:00,
2013-01-25 08:17:00,17.3,8.9,29.93,West,278,3.0,13.0,69,0.00,,OVC030,0.00,VWS V14.01,2013-01-25 14:17:00,
2013-01-25 08:22:00,17.3,8.9,29.93,WSW,247,4.0,10.0,69,0.00,,OVC030,0.00,VWS V14.01,2013-01-25 14:22:00,
2013-01-25 08:32:00,17.2,9.1,29.93,West,262,1.0,15.0,70,0.00,,OVC028,0.00,VWS V14.01,2013-01-25 14:32:00,
2013-01-25 08:37:00,17.3,9.2,29.93,WNW,297,14.0,17.0,70,0.00,,OVC028,0.00,VWS V14.01,2013-01-25 14:37:00,
2013-01-25 08:47:00,17.5,9.1,29.93,WNW,294,12.0,17.0,69,0.00,,OVC028,0.00,VWS V14.01,2013-01-25 14:47:00,
2013-01-25 08:52:00,17.7,9.3,29.93,West,278,23.0,23.0,69,0.00,,OVC028,0.00,VWS V14.01,2013-01-25 14:52:00,
2013-01-25 08:57:00,17.8,9.0,29.93,WNW,288,10.0,23.0,68,0.00,,OVC028,0.00,VWS V14.01,2013-01-25 14:57:00,
2013-01-25 09:02:00,18.0,9.2,29.93,West,280,4.0,19.0,68,0.00,,BKN032,0.00,VWS V14.01,2013-01-25 15:02:00,
2013-01-25 09:07:00,18.1,9.3,29.93,West,270,13.0,20.0,68,0.00,,BKN032,0.00,VWS V14.01,2013-01-25 15:07:00,
2013-01-25 09:17:00,18.0,8.9,29.94,WNW,286,11.0,18.0,67,0.00,,BKN026,0.00,VWS V14.01,2013-01-25 15:17:00,
2013-01-25 09:27:00,17.8,7.7,29.94,NW,318,13.0,23.0,64,0.00,,BKN026,0.00,VWS V14.01,2013-01-25 15:27:00,
2013-01-25 09:32:00,17.8,7.3,29.95,WNW,293,15.0,20.0,63,0.00,,BKN026,0.00,VWS V14.01,2013-01-25 15:32:00,
2013-01-25 09:37:00,17.8,7.0,29.95,WNW,282,12.0,21.0,62,0.00,,BKN026,0.00,VWS V14.01,2013-01-25 15:37:00,
2013-01-25 09:42:00,17.8,6.6,29.95,WNW,282,16.0,22.0,61,0.00,,BKN026,0.00,VWS V14.01,2013-01-25 15:42:00,
2013-01-25 09:47:00,17.8,7.0,29.95,West,265,4.0,17.0,62,0.00,,BKN026,0.00,VWS V14.01,2013-01-25 15:47:00,
2013-01-25 09:52:00,17.7,6.6,29.95,West,274,19.0,22.0,61,0.00,,BKN026,0.00,VWS V14.01,2013-01-25 15:52:00,
2013-01-25 09:57:00,17.3,6.5,29.95,West,269,12.0,24.0,62,0.00,,BKN026,0.00,VWS V14.01,2013-01-25 15:57:00,
2013-01-25 10:02:00,17.2,6.8,29.96,West,281,9.0,16.0,63,0.00,,OVC034,0.00,VWS V14.01,2013-01-25 16:02:00,
2013-01-25 10:07:00,17.2,7.1,29.96,WNW,284,3.0,18.0,64,0.00,,OVC034,0.00,VWS V14.01,2013-01-25 16:07:00,
2013-01-25 10:17:00,17.2,6.8,29.96,WNW,301,9.0,20.0,63,0.00,,OVC034,0.00,VWS V14.01,2013-01-25 16:17:00,
2013-01-25 10:22:00,17.3,6.5,29.96,West,263,23.0,23.0,62,0.00,,OVC034,0.00,VWS V14.01,2013-01-25 16:22:00,
2013-01-25 10:27:00,17.3,6.2,29.96,WNW,289,17.0,23.0,61,0.00,,OVC034,0.00,VWS V14.01,2013-01-25 16:27:00,
2013-01-25 10:32:00,17.3,5.8,29.96,WNW,284,17.0,19.0,60,0.00,,SCT036,0.00,VWS V14.01,2013-01-25 16:32:00,
2013-01-25 10:42:00,16.9,4.7,29.96,WNW,297,11.0,20.0,58,0.00,,SCT036,0.00,VWS V14.01,2013-01-25 16:42:00,
2013-01-25 10:47:00,16.7,4.5,29.97,West,262,12.0,23.0,58,0.00,,SCT036,0.00,VWS V14.01,2013-01-25 16:47:00,
2013-01-25 10:57:00,16.1,3.9,29.97,NNW,333,11.0,25.0,58,0.00,,SCT036,0.00,VWS V14.01,2013-01-25 16:57:00,
2013-01-25 11:02:00,16.2,4.0,29.99,NW,325,13.0,22.0,58,0.00,,FEW040,0.00,VWS V14.01,2013-01-25 17:02:00,
2013-01-25 11:07:00,16.4,4.2,29.99,West,270,13.0,20.0,58,0.00,,FEW040,0.00,VWS V14.01,2013-01-25 17:07:00,
2013-01-25 11:17:00,16.1,3.6,29.99,WNW,303,13.0,22.0,57,0.00,,FEW040,0.00,VWS V14.01,2013-01-25 17:17:00,
2013-01-25 11:22:00,16.1,3.9,29.99,NW,315,11.0,16.0,58,0.00,,FEW040,0.00,VWS V14.01,2013-01-25 17:22:00,
2013-01-25 11:32:00,15.7,2.8,30.00,West,281,11.0,22.0,56,0.00,,BKN035,0.00,VWS V14.01,2013-01-25 17:32:00,
2013-01-25 11:42:00,15.9,3.0,30.00,NW,319,6.0,22.0,56,0.00,,BKN035,0.00,VWS V14.01,2013-01-25 17:42:00,
2013-01-25 11:47:00,15.7,3.2,30.00,NNW,340,14.0,21.0,57,0.00,,BKN032,0.00,VWS V14.01,2013-01-25 17:47:00,
2013-01-25 11:52:00,15.6,2.7,30.00,NNW,336,9.0,23.0,56,0.00,,BKN032,0.00,VWS V14.01,2013-01-25 17:52:00,
2013-01-25 11:57:00,15.4,2.5,30.00,WNW,297,11.0,23.0,56,0.00,,BKN032,0.00,VWS V14.01,2013-01-25 17:57:00,
2013-01-25 12:02:00,15.2,2.7,30.01,West,269,14.0,21.0,57,0.00,,OVC036,0.00,VWS V14.01,2013-01-25 18:02:00,
2013-01-25 12:12:00,14.9,1.7,30.01,WNW,292,16.0,21.0,55,0.00,,OVC036,0.00,VWS V14.01,2013-01-25 18:12:00,
2013-01-25 12:17:00,14.9,2.0,30.01,WNW,290,5.0,21.0,56,0.00,,OVC036,0.00,VWS V14.01,2013-01-25 18:17:00,
2013-01-25 12:27:00,14.8,2.0,30.01,NW,312,14.0,18.0,56,0.00,,OVC036,0.00,VWS V14.01,2013-01-25 18:27:00,
2013-01-25 12:37:00,14.8,1.6,30.02,West,279,12.0,26.0,55,0.00,,OVC036,0.00,VWS V14.01,2013-01-25 18:37:00,
2013-01-25 12:42:00,14.6,1.4,30.02,West,269,10.0,20.0,55,0.00,,OVC036,0.00,VWS V14.01,2013-01-25 18:42:00,
2013-01-25 12:47:00,14.6,1.8,30.02,West,281,16.0,23.0,56,0.00,,OVC036,0.00,VWS V14.01,2013-01-25 18:47:00,
2013-01-25 12:57:00,14.8,1.6,30.02,NNW,329,8.0,20.0,55,0.00,,OVC036,0.00,VWS V14.01,2013-01-25 18:57:00,
2013-01-25 13:07:00,14.4,1.2,30.03,NW,308,10.0,24.0,55,0.00,,CLR,0.00,VWS V14.01,2013-01-25 19:07:00,
2013-01-25 13:12:00,14.6,1.0,30.03,WNW,290,22.0,26.0,54,0.00,,CLR,0.00,VWS V14.01,2013-01-25 19:12:00,
2013-01-25 13:22:00,14.6,1.0,30.04,NW,321,7.0,23.0,54,0.00,,CLR,0.00,VWS V14.01,2013-01-25 19:22:00,
2013-01-25 13:27:00,14.9,1.7,30.04,NNW,340,6.0,21.0,55,0.00,,CLR,0.00,VWS V14.01,2013-01-25 19:27:00,
2013-01-25 13:32:00,15.1,1.9,30.04,NNW,332,5.0,22.0,55,0.00,,CLR,0.00,VWS V14.01,2013-01-25 19:32:00,
2013-01-25 13:37:00,14.9,1.3,30.04,NNW,332,15.0,18.0,54,0.00,,CLR,0.00,VWS V14.01,2013-01-25 19:37:00,
2013-01-25 13:42:00,14.8,1.2,30.04,WNW,290,5.0,22.0,54,0.00,,CLR,0.00,VWS V14.01,2013-01-25 19:42:00,
2013-01-25 13:47:00,15.1,1.5,30.04,NW,308,12.0,17.0,54,0.00,,CLR,0.00,VWS V14.01,2013-01-25 19:47:00,
2013-01-25 13:57:00,14.8,1.2,30.04,NW,309,12.0,19.0,54,0.00,,CLR,0.00,VWS V14.01,2013-01-25 19:57:00,
2013-01-25 14:02:00,14.9,1.3,30.06,NW,309,12.0,21.0,54,0.00,,CLR,0.00,VWS V14.01,2013-01-25 20:02:00,
2013-01-25 14:12:00,15.1,1.1,30.06,WNW,296,8.0,17.0,53,0.00,,CLR,0.00,VWS V14.01,2013-01-25 20:12:00,
2013-01-25 14:17:00,15.1,1.1,30.06,West,281,10.0,16.0,53,0.00,,CLR,0.00,VWS V14.01,2013-01-25 20:17:00,
2013-01-25 14:22:00,14.9,0.9,30.06,WNW,294,5.0,19.0,53,0.00,,CLR,0.00,VWS V14.01,2013-01-25 20:22:00,
2013-01-25 14:27:00,14.6,0.6,30.06,NW,305,12.0,19.0,53,0.00,,CLR,0.00,VWS V14.01,2013-01-25 20:27:00,
2013-01-25 14:32:00,14.6,1.0,30.07,NNW,331,10.0,18.0,54,0.00,,CLR,0.00,VWS V14.01,2013-01-25 20:32:00,
2013-01-25 14:37:00,14.8,1.2,30.07,West,259,13.0,16.0,54,0.00,,CLR,0.00,VWS V14.01,2013-01-25 20:37:00,
2013-01-25 14:42:00,14.8,0.8,30.07,West,271,7.0,20.0,53,0.00,,CLR,0.00,VWS V14.01,2013-01-25 20:42:00,
2013-01-25 14:47:00,14.4,0.4,30.08,NNW,338,10.0,18.0,53,0.00,,CLR,0.00,VWS V14.01,2013-01-25 20:47:00,
2013-01-25 14:52:00,14.3,0.3,30.08,WNW,284,10.0,18.0,53,0.00,,CLR,0.00,VWS V14.01,2013-01-25 20:52:00,
2013-01-25 15:02:00,14.3,0.7,30.09,WNW,297,10.0,20.0,54,0.00,,FEW030,0.00,VWS V14.01,2013-01-25 21:02:00,
2013-01-25 15:12:00,14.1,0.5,30.09,WNW,298,12.0,18.0,54,0.00,,FEW030,0.00,VWS V14.01,2013-01-25 21:12:00,
2013-01-25 15:17:00,14.0,0.4,30.09,NW,304,10.0,19.0,54,0.00,,FEW030,0.00,VWS V14.01,2013-01-25 21:17:00,
2013-01-25 15:22:00,13.8,0.6,30.09,NW,312,10.0,17.0,55,0.00,,FEW030,0.00,VWS V14.01,2013-01-25 21:22:00,
2013-01-25 15:27:00,13.6,0.1,30.09,NW,304,12.0,19.0,54,0.00,,FEW030,0.00,VWS V14.01,2013-01-25 21:27:00,
2013-01-25 15:32:00,13.6,0.4,30.10,WNW,302,9.0,16.0,55,0.00,,FEW030,0.00,VWS V14.01,2013-01-25 21:32:00,
2013-01-25 15:37:00,13.6,0.4,30.10,WNW,292,10.0,16.0,55,0.00,,FEW030,0.00,VWS V14.01,2013-01-25 21:37:00,
2013-01-25 15:42:00,13.5,0.7,30.10,WNW,282,9.0,18.0,56,0.00,,FEW030,0.00,VWS V14.01,2013-01-25 21:42:00,
2013-01-25 15:47:00,13.3,0.2,30.10,NNW,340,7.0,20.0,55,0.00,,FEW030,0.00,VWS V14.01,2013-01-25 21:47:00,
2013-01-25 15:57:00,13.3,0.6,30.10,West,265,15.0,16.0,56,0.00,,FEW030,0.00,VWS V14.01,2013-01-25 21:57:00,
2013-01-25 16:02:00,13.1,0.4,30.11,NW,309,6.0,18.0,56,0.00,,CLR,0.00,VWS V14.01,2013-01-25 22:02:00,
2013-01-25 16:07:00,13.1,0.4,30.11,NNW,344,9.0,15.0,56,0.00,,CLR,0.00,VWS V14.01,2013-01-25 22:07:00,
2013-01-25 16:17:00,12.8,0.1,30.12,NW,310,9.0,16.0,56,0.00,,CLR,0.00,VWS V14.01,2013-01-25 22:17:00,
2013-01-25 16:22:00,12.6,-0.1,30.12,WNW,292,12.0,17.0,56,0.00,,CLR,0.00,VWS V14.01,2013-01-25 22:22:00,
2013-01-25 16:27:00,12.6,-0.1,30.12,WNW,300,7.0,14.0,56,0.00,,CLR,0.00,VWS V14.01,2013-01-25 22:27:00,
2013-01-25 16:32:00,12.4,0.1,30.14,NNW,333,4.0,14.0,57,0.00,,CLR,0.00,VWS V14.01,2013-01-25 22:32:00,
2013-01-25 16:37:00,12.3,0.0,30.14,NW,311,7.0,14.0,57,0.00,,CLR,0.00,VWS V14.01,2013-01-25 22:37:00,
2013-01-25 16:42:00,12.1,-0.2,30.14,NW,320,4.0,13.0,57,0.00,,CLR,0.00,VWS V14.01,2013-01-25 22:42:00,
2013-01-25 16:47:00,11.9,-0.4,30.14,WNW,286,10.0,18.0,57,0.00,,CLR,0.00,VWS V14.01,2013-01-25 22:47:00,
2013-01-25 16:52:00,11.9,-0.4,30.14,West,280,8.0,15.0,57,0.00,,CLR,0.00,VWS V14.01,2013-01-25 22:52:00,
2013-01-25 16:57:00,11.7,-0.6,30.14,NW,325,12.0,15.0,57,0.00,,CLR,0.00,VWS V14.01,2013-01-25 22:57:00,
2013-01-25 17:02:00,11.6,-1.0,30.14,NW,309,7.0,15.0,56,0.00,,CLR,0.00,VWS V14.01,2013-01-25 23:02:00,
2013-01-25 17:12:00,11.4,-0.9,30.14,NW,319,7.0,13.0,57,0.00,,CLR,0.00,VWS V14.01,2013-01-25 23:12:00,
2013-01-25 17:17:00,11.2,-1.0,30.15,NNW,339,0.0,11.0,57,0.00,,CLR,0.00,VWS V14.01,2013-01-25 23:17:00,
2013-01-25 17:22:00,11.2,-0.7,30.15,NNW,335,12.0,14.0,58,0.00,,CLR,0.00,VWS V14.01,2013-01-25 23:22:00,
2013-01-25 17:27:00,11.1,-1.1,30.15,NNW,329,10.0,15.0,57,0.00,,CLR,0.00,VWS V14.01,2013-01-25 23:27:00,
2013-01-25 17:32:00,10.9,-1.3,30.16,NW,323,6.0,11.0,57,0.00,,CLR,0.00,VWS V14.01,2013-01-25 23:32:00,
2013-01-25 17:37:00,10.7,-1.2,30.16,WNW,302,3.0,12.0,58,0.00,,CLR,0.00,VWS V14.01,2013-01-25 23:37:00,
2013-01-25 17:42:00,10.5,-1.3,30.16,NW,304,2.0,11.0,58,0.00,,CLR,0.00,VWS V14.01,2013-01-25 23:42:00,
2013-01-25 17:47:00,10.4,-1.4,30.16,NW,325,4.0,10.0,58,0.00,,CLR,0.00,VWS V14.01,2013-01-25 23:47:00,
2013-01-25 17:52:00,10.2,-1.6,30.16,WNW,294,0.0,9.0,58,0.00,,CLR,0.00,VWS V14.01,2013-01-25 23:52:00,
2013-01-25 17:57:00,10.2,-1.6,30.16,NW,317,6.0,9.0,58,0.00,,CLR,0.00,VWS V14.01,2013-01-25 23:57:00,
2013-01-25 18:02:00,10.0,-1.8,30.16,WNW,286,5.0,11.0,58,0.00,,CLR,0.00,VWS V14.01,2013-01-26 00:02:00,
2013-01-25 18:07:00,10.0,-1.8,30.16,NNW,348,6.0,12.0,58,0.00,,CLR,0.00,VWS V14.01,2013-01-26 00:07:00,
2013-01-25 18:12:00,9.9,-1.9,30.16,NNW,329,0.0,12.0,58,0.00,,CLR,0.00,VWS V14.01,2013-01-26 00:12:00,
2013-01-25 18:17:00,9.7,-1.7,30.17,NW,319,3.0,10.0,59,0.00,,CLR,0.00,VWS V14.01,2013-01-26 00:17:00,
2013-01-25 18:22:00,9.7,-1.7,30.17,WNW,297,5.0,11.0,59,0.00,,CLR,0.00,VWS V14.01,2013-01-26 00:22:00,
2013-01-25 18:27:00,9.5,-1.9,30.17,NW,319,4.0,12.0,59,0.00,,CLR,0.00,VWS V14.01,2013-01-26 00:27:00,
2013-01-25 18:32:00,9.3,-2.1,30.18,NW,310,8.0,12.0,59,0.00,,CLR,0.00,VWS V14.01,2013-01-26 00:32:00,
2013-01-25 18:42:00,9.2,-2.2,30.18,NNW,327,10.0,13.0,59,0.00,,CLR,0.00,VWS V14.01,2013-01-26 00:42:00,
2013-01-25 18:47:00,9.0,-2.4,30.19,NNW,337,4.0,10.0,59,0.00,,CLR,0.00,VWS V14.01,2013-01-26 00:47:00,
2013-01-25 18:52:00,9.0,-2.4,30.19,NW,309,0.0,11.0,59,0.00,,CLR,0.00,VWS V14.01,2013-01-26 00:52:00,
2013-01-25 18:57:00,8.8,-2.6,30.19,NW,323,6.0,14.0,59,0.00,,CLR,0.00,VWS V14.01,2013-01-26 00:57:00,
2013-01-25 19:02:00,8.6,-2.4,30.20,West,273,10.0,12.0,60,0.00,,CLR,0.00,VWS V14.01,2013-01-26 01:02:00,
2013-01-25 19:07:00,8.6,-2.4,30.20,WNW,300,2.0,11.0,60,0.00,,CLR,0.00,VWS V14.01,2013-01-26 01:07:00,
2013-01-25 19:12:00,8.4,-2.6,30.20,NNW,346,3.0,15.0,60,0.00,,CLR,0.00,VWS V14.01,2013-01-26 01:12:00,
2013-01-25 19:17:00,8.3,-2.7,30.21,WNW,293,6.0,10.0,60,0.00,,CLR,0.00,VWS V14.01,2013-01-26 01:17:00,
2013-01-25 19:22:00,8.1,-2.9,30.21,NNW,348,5.0,7.0,60,0.00,,CLR,0.00,VWS V14.01,2013-01-26 01:22:00,
2013-01-25 19:27:00,7.9,-3.1,30.21,NW,310,0.0,10.0,60,0.00,,CLR,0.00,VWS V14.01,2013-01-26 01:27:00,
2013-01-25 19:32:00,7.9,-3.1,30.21,NW,320,7.0,10.0,60,0.00,,CLR,0.00,VWS V14.01,2013-01-26 01:32:00,
2013-01-25 19:37:00,7.7,-2.9,30.21,NNW,346,4.0,11.0,61,0.00,,CLR,0.00,VWS V14.01,2013-01-26 01:37:00,
2013-01-25 19:47:00,7.6,-3.0,30.22,NW,319,2.0,9.0,61,0.00,,CLR,0.00,VWS V14.01,2013-01-26 01:47:00,
2013-01-25 19:57:00,7.4,-3.2,30.22,NNW,333,0.0,9.0,61,0.00,,CLR,0.00,VWS V14.01,2013-01-26 01:57:00,
2013-01-25 20:02:00,7.2,-3.4,30.22,WNW,299,7.0,7.0,61,0.00,,CLR,0.00,VWS V14.01,2013-01-26 02:02:00,
2013-01-25 20:07:00,7.2,-3.1,30.22,NW,318,0.0,8.0,62,0.00,,CLR,0.00,VWS V14.01,2013-01-26 02:07:00,
2013-01-25 20:12:00,7.0,-3.3,30.22,NW,311,0.0,7.0,62,0.00,,CLR,0.00,VWS V14.01,2013-01-26 02:12:00,
2013-01-25 20:22:00,6.9,-3.3,30.24,NNW,331,2.0,10.0,62,0.00,,CLR,0.00,VWS V14.01,2013-01-26 02:22:00,
2013-01-25 20:27:00,6.7,-3.5,30.24,NW,325,0.0,7.0,62,0.00,,CLR,0.00,VWS V14.01,2013-01-26 02:27:00,
2013-01-25 20:32:00,6.5,-3.7,30.24,NW,311,0.0,5.0,62,0.00,,CLR,0.00,VWS V14.01,2013-01-26 02:32:00,
2013-01-25 20:37:00,6.5,-3.7,30.24,WNW,301,5.0,9.0,62,0.00,,CLR,0.00,VWS V14.01,2013-01-26 02:37:00,
2013-01-25 20:47:00,6.3,-3.9,30.24,WNW,301,4.0,8.0,62,0.00,,CLR,0.00,VWS V14.01,2013-01-26 02:47:00,
2013-01-25 20:52:00,6.1,-4.1,30.24,NW,311,6.0,7.0,62,0.00,,CLR,0.00,VWS V14.01,2013-01-26 02:52:00,
2013-01-25 20:57:00,6.1,-4.1,30.24,NW,313,0.0,8.0,62,0.00,,CLR,0.00,VWS V14.01,2013-01-26 02:57:00,
2013-01-25 21:07:00,6.0,-3.9,30.25,WNW,284,2.0,9.0,63,0.00,,CLR,0.00,VWS V14.01,2013-01-26 03:07:00,
2013-01-25 21:17:00,5.8,-4.1,30.26,NW,306,6.0,12.0,63,0.00,,CLR,0.00,VWS V14.01,2013-01-26 03:17:00,
2013-01-25 21:22:00,5.8,-4.1,30.26,WNW,300,6.0,11.0,63,0.00,,CLR,0.00,VWS V14.01,2013-01-26 03:22:00,
2013-01-25 21:32:00,5.6,-4.3,30.26,NW,312,4.0,9.0,63,0.00,,CLR,0.00,VWS V14.01,2013-01-26 03:32:00,
2013-01-25 21:37:00,5.6,-4.3,30.26,WNW,288,5.0,9.0,63,0.00,,CLR,0.00,VWS V14.01,2013-01-26 03:37:00,
2013-01-25 21:42:00,5.4,-4.4,30.26,WNW,290,0.0,9.0,63,0.00,,CLR,0.00,VWS V14.01,2013-01-26 03:42:00,
2013-01-25 21:47:00,5.4,-4.4,30.27,West,275,4.0,10.0,63,0.00,,CLR,0.00,VWS V14.01,2013-01-26 03:47:00,
2013-01-25 21:52:00,5.2,-4.6,30.27,WNW,298,0.0,8.0,63,0.00,,CLR,0.00,VWS V14.01,2013-01-26 03:52:00,
2013-01-25 22:02:00,5.2,-4.6,30.27,West,273,7.0,7.0,63,0.00,,CLR,0.00,VWS V14.01,2013-01-26 04:02:00,
2013-01-25 22:07:00,5.0,-4.8,30.27,WNW,300,0.0,7.0,63,0.00,,CLR,0.00,VWS V14.01,2013-01-26 04:07:00,
2013-01-25 22:12:00,5.0,-4.5,30.27,WNW,298,0.0,7.0,64,0.00,,CLR,0.00,VWS V14.01,2013-01-26 04:12:00,
2013-01-25 22:22:00,4.8,-4.7,30.27,NW,304,0.0,5.0,64,0.00,,CLR,0.00,VWS V14.01,2013-01-26 04:22:00,
2013-01-25 22:27:00,4.8,-4.7,30.27,NW,304,0.0,6.0,64,0.00,,CLR,0.00,VWS V14.01,2013-01-26 04:27:00,
2013-01-25 22:32:00,4.7,-4.8,30.28,WNW,287,0.0,5.0,64,0.00,,CLR,0.00,VWS V14.01,2013-01-26 04:32:00,
2013-01-25 22:37:00,4.7,-4.8,30.28,NW,312,0.0,0.0,64,0.00,,CLR,0.00,VWS V14.01,2013-01-26 04:37:00,
2013-01-25 22:42:00,4.5,-4.7,30.28,WNW,302,0.0,5.0,65,0.00,,CLR,0.00,VWS V14.01,2013-01-26 04:42:00,
2013-01-25 22:47:00,4.5,-4.7,30.29,NW,311,0.0,0.0,65,0.00,,CLR,0.00,VWS V14.01,2013-01-26 04:47:00,
2013-01-25 22:52:00,4.3,-4.8,30.29,NW,306,0.0,0.0,65,0.00,,CLR,0.00,VWS V14.01,2013-01-26 04:52:00,
2013-01-25 22:57:00,4.3,-4.8,30.29,NW,312,0.0,0.0,65,0.00,,CLR,0.00,VWS V14.01,2013-01-26 04:57:00,
2013-01-25 23:02:00,4.1,-5.0,30.29,NW,323,0.0,0.0,65,0.00,,CLR,0.00,VWS V14.01,2013-01-26 05:02:00,
2013-01-25 23:12:00,3.9,-5.2,30.29,NW,326,0.0,6.0,65,0.00,,CLR,0.00,VWS V14.01,2013-01-26 05:12:00,
2013-01-25 23:17:00,3.9,-5.2,30.31,NW,321,1.0,7.0,65,0.00,,CLR,0.00,VWS V14.01,2013-01-26 05:17:00,
2013-01-25 23:27:00,3.7,-5.4,30.31,NW,323,0.0,6.0,65,0.00,,CLR,0.00,VWS V14.01,2013-01-26 05:27:00,
2013-01-25 23:32:00,3.7,-5.4,30.31,NW,322,0.0,0.0,65,0.00,,CLR,0.00,VWS V14.01,2013-01-26 05:32:00,
2013-01-25 23:37:00,3.5,-5.6,30.31,NW,305,0.0,6.0,65,0.00,,CLR,0.00,VWS V14.01,2013-01-26 05:37:00,
2013-01-25 23:42:00,3.5,-5.6,30.31,WNW,298,2.0,5.0,65,0.00,,CLR,0.00,VWS V14.01,2013-01-26 05:42:00,
2013-01-25 23:47:00,3.5,-5.6,30.32,NW,319,0.0,7.0,65,0.00,,CLR,0.00,VWS V14.01,2013-01-26 05:47:00,
2013-01-25 23:52:00,3.5,-5.3,30.32,WNW,301,0.0,7.0,66,0.00,,CLR,0.00,VWS V14.01,2013-01-26 05:52:00,